Regional Weather Roundup
Issued by NWS

Home | Current Version | Previous Version | Text Only | Print | Product List | Glossary On
Versions: 1 2 3 4 5 6 7 8 9 10 11 12 13 14 15 16 17 18 19 20 21 22 23 24 25 26 27 28 29 30 31 32 33 34 35 36 37 38 39 40 41 42 43 44 45 46 47 48 49 50
000
ASUS44 KFWD 022115
RWRTX
NORTH TEXAS HOURLY WEATHER ROUNDUP
NATIONAL WEATHER SERVICE FORT WORTH TX
400 PM CDT TUE SEP 02 2014

NOTE: "FAIR" INDICATES FEW OR NO CLOUDS BELOW 12,000 FEET WITH NO
SIGNIFICANT WEATHER AND/OR OBSTRUCTIONS TO VISIBILITY.

TXZ118-119-022200-
DALLAS/FORT WORTH METROPLEX

CITY           SKY/WX    TMP DP  RH WIND       PRES   REMARKS
DFW AIRPORT    PTSUNNY   94  68  42 S12G21    29.91F HX  98
DALLAS LOVE    MOSUNNY   95  67  39 SE12      29.91F HX  99
FTW MEACHAM    MOSUNNY   98  67  36 SE16G24   29.90F HX 102
DAL-EXECUTIVE  MOSUNNY   98  66  34 SE15G22   29.91F HX 101
FTW-ALLIANCE   MOSUNNY   96  67  38 SE14G22   29.90F HX 100
FTW-NAS-JRB    MOSUNNY   99  63  30 SE14G22   29.94F HX 101
FTW-SPINKS     MOSUNNY   97  66  36 SE7G17    29.92F HX 100
ARLINGTON      SUNNY     95  67  39 SE15      29.91F HX  99
GRAND PRAIRIE  SUNNY     95  66  38 E7        29.92F HX  98
MESQUITE       PTSUNNY   97  64  34 E12G17    29.93F HX  99
LANCASTER      PTSUNNY   96  66  37 SE9       29.93F HX  99
$$

TXZ091>094-102>105-117-120-121-131>134-022200-
NORTH CENTRAL TEXAS

CITY           SKY/WX    TMP DP  RH WIND       PRES   REMARKS
SHRMAN/DENISON SUNNY     90  68  47 E17       29.94F HX  94
GAINESVILLE    SUNNY     92  71  49 SE16      29.93F HX  98
BOWIE          MOSUNNY   93  69  44 SE13G22   29.91F HX  98
BRIDGEPORT     MOSUNNY   95  62  33 SE12      29.92F HX  95
DECATUR        MOSUNNY   93  65  38 SE14      29.92F HX  95
DENTON         MOSUNNY   95  67  39 S13G22    29.91F HX  99
MCKINNEY       MOSUNNY   94  69  44 S10       29.92F HX  99
GREENVILLE     PTSUNNY   90  64  43 E10G22    29.95F HX  91
ROCKWALL       PTSUNNY   95  71  45 SE7G16    29.92F HX 101
TERRELL        MOSUNNY   97  67  37 SE14      29.94F HX 101
WAXAHACHIE     SUNNY     96  64  34 SE10G17   29.93F HX  97
GRANBURY       SUNNY     98  64  32 S13G18    29.91F HX 100
$$

TXZ083>090-098>101-113>116-127>130-139>142-154-155-022200-
WESTERN NORTH TEXAS

CITY           SKY/WX    TMP DP  RH WIND       PRES   REMARKS
WICHITA FALLS  PTSUNNY   97  66  36 SE15G25   29.87F HX 100
WF-KICKAPOO    MOSUNNY   97  62  30 SE12G25   29.89F HX  98
VERNON         SUNNY    100  61  27 S16G25    29.88F HX 100
ABILENE        MOSUNNY   97  64  33 S14G26    29.92F HX  99
ABILENE-DYESS  MOSUNNY   95  65  36 S15G21    29.90F HX  98
BRECKENRIDGE   MOSUNNY   98  63  31 SE12G18   29.90F HAZE    HX  99
GRAHAM         MOSUNNY   98  64  32 SE12G18   29.88F HX 100
MINERAL WELLS  SUNNY     94  66  39 SE15G21   29.90F HX  97
STEPHENVILLE   SUNNY     94  63  36 S8        29.97F HX  95
COMANCHE         N/A     93  59  32 S9G20     29.94F HX  92
BROWNWOOD      MOSUNNY   95  63  34 SE13G20   29.92F HX  96
COLEMAN        MOSUNNY   95  61  32 SE12      29.94F HX  95
BRADY          MOSUNNY   93  64  38 SE6       29.94F HX  95
$$

TXZ143>147-156>162-174-175-022200-
CENTRAL TEXAS

CITY           SKY/WX    TMP DP  RH WIND       PRES   REMARKS
WACO           MOSUNNY   97  67  37 SE8       29.91F HX 101
WACO-MCGREGOR  MOSUNNY   99  68  36 S9G17     29.91F HX 104
HILLSBORO      MOSUNNY   98  64  32 S10G18    29.92F HX 100
CORSICANA      SUNNY     95  70  44 SE7       29.94F HX 101
MEXIA          MOSUNNY   93  73  50 SE7       29.92F HX 102
HEARNE           N/A     91  70  49 SE17G28   29.93S HX  97
CAMERON        MOSUNNY   96  71  45 S16G23    29.91S HX 103
TEMPLE         MOSUNNY   97  66  36 S15       29.91F HX 100
KILLEEN        PTSUNNY   99  68  36 SE12      29.91F HX 104
KILLEEN-SKYLRK PTSUNNY   97  66  36 SE12      29.91F HX 100
FORT HOOD      MOSUNNY   99  67  35 SE15      29.91F HX 103
GATESVILLE     MOSUNNY   99  64  32 S8        29.93F HX 101
HAMILTON       MOSUNNY   95  63  34 SE14      29.94F HX  96
LAMPASAS       MOSUNNY   96  69  41 SE12      29.91F HX 101
$$

TXZ095>097-106>112-122>126-135>138-148>153-164>167-022200-
EAST TEXAS

CITY           SKY/WX    TMP DP  RH WIND       PRES   REMARKS
PARIS          SUNNY     90  63  40 E14G21    29.96F HX  90
SULPHUR SPRNGS MOSUNNY   88  66  47 E14       29.97F HX  90
MOUNT PLEASANT SUNNY     91  66  42 E7        29.97F HX  93
GILMER         MOSUNNY   88  72  58 SE12      30.00R THUNDER HX  94
MINEOLA        MOSUNNY   91  70  49 N3        29.96F HX  97
TYLER          MOSUNNY   90  72  55 SE15      29.96F HX  97
LONGVIEW       CLOUDY    75  71  87 S9        29.98F
MARSHALL       CLOUDY    78  74  87 SE5       30.03F
ATHENS         MOSUNNY   91  70  49 S13G20    29.94F HX  97
PALESTINE      RAIN      76  73  90 SE3       29.98S
JACKSONVILLE   CLOUDY    82  72  71 S9        30.01F
HENDERSON      CLOUDY    74  73  96 E5        29.99F
NACOGDOCHES    CLOUDY    75  73  94 E7        30.02R
LUFKIN         CLOUDY    82  76  81 NE6       29.99S
$$

SUPPLEMENTAL OBSERVATIONS (CENTRAL)

CITY           SKY/WX    TMP DP  RH WIND       PRES   REMARKS
LAKE TEXOMA      N/A     86  66  51 E15         N/A
PAT MAYSE LAKE   N/A     88  63  42 E10         N/A
GREENVILLE       N/A     90  68  48 E12G25      N/A  HX  93
CEDAR HILL       N/A     99  66  34 SE7G18      N/A  HX 102
ATHENS           N/A     95  70  43 SE13        N/A  HX 101
PALESTINE        N/A     73  70  88 S2G17       N/A
LAKE LIMESTONE   N/A     97  70  41 SE9G17      N/A  HX 103
MCGREGOR         N/A     97  68  38 SE8G18      N/A  HX 101
TEMPLE           N/A     95  66  38 SE9G17      N/A  HX  98
$$

SUPPLEMENTAL OBSERVATIONS (WEST)

CITY           SKY/WX    TMP DP  RH WIND       PRES   REMARKS
POSSUM KINGDOM   N/A     97  64  34 SE14        N/A  HX  99
GRANBURY         N/A     97  64  34 SE14        N/A  HX  99
HAMBY            N/A     99  63  30 S15         N/A  HX 100
IVIE RESERVOIR   N/A     95  63  34 SE16        N/A  HX  96
COLORADO BEND    N/A     97  63  32 S10G18      N/A  HX  98
$$

SUPPLEMENTAL OBSERVATIONS (EAST)

CITY           SKY/WX    TMP DP  RH WIND       PRES   REMARKS
TEXARKANA        N/A     93  68  43 E3          N/A  HX  97
LINDEN           N/A     88  72  58 SE3         N/A  HX  94
HENDERSON        N/A     73  70  88 S5G15       N/A
LUFKIN           N/A     81  75  83 MISG        N/A
N SABINE NF      N/A     75  72  88 MISG        N/A
$$

SUPPLEMENTAL OBSERVATIONS ARE A COLLECTION OF AUTOMATED INSTRUMENTS
THAT ARE MAINTAINED BY A VARIETY OF FEDERAL AND STATE AGENCIES.
CERTAIN ELEMENTS...SUCH AS HUMIDITY VALUES AND SUSTAINED WIND
SPEEDS...MAY BE APPROXIMATED.




USA.gov is the U.S. government's official web portal to all federal, state and local government web resources and services.